TimeCST,TemperatureF,Dew PointF,Humidity,Sea Level PressureIn,VisibilityMPH,Wind Direction,Wind SpeedMPH,Gust SpeedMPH,PrecipitationIn,Events,Conditions,WindDirDegrees,DateUTC
12:56 AM,43.0,42.1,97,30.14,10.0,NW,3.5,-,0.00,,Clear,320,2013-01-21 06:56:00
1:56 AM,45.0,45.0,100,30.13,8.0,NNW,5.8,-,0.00,,Clear,340,2013-01-21 07:56:00
2:56 AM,46.0,46.0,100,30.12,7.0,NW,4.6,-,N/A,,Clear,320,2013-01-21 08:56:00
3:56 AM,46.9,46.0,97,30.13,8.0,NW,4.6,-,N/A,,Clear,310,2013-01-21 09:56:00
4:56 AM,45.0,44.1,97,30.14,7.0,NW,3.5,-,N/A,,Clear,310,2013-01-21 10:56:00
5:56 AM,43.0,43.0,100,30.15,5.0,NW,4.6,-,0.00,,Clear,320,2013-01-21 11:56:00
6:56 AM,43.0,43.0,100,30.16,2.0,NNW,5.8,-,0.00,,Clear,330,2013-01-21 12:56:00
7:08 AM,44.6,44.6,100,30.16,4.0,NW,5.8,-,N/A,,Clear,320,2013-01-21 13:08:00
7:56 AM,48.0,46.0,93,30.19,7.0,NNW,5.8,-,N/A,,Clear,330,2013-01-21 13:56:00
8:56 AM,52.0,46.9,83,30.20,10.0,NNW,4.6,-,N/A,,Clear,330,2013-01-21 14:56:00
9:56 AM,59.0,45.0,60,30.21,10.0,Variable,5.8,-,N/A,,Clear,0,2013-01-21 15:56:00
10:56 AM,64.0,42.1,45,30.19,10.0,NNW,6.9,-,N/A,,Clear,330,2013-01-21 16:56:00
11:56 AM,64.9,39.9,40,30.15,10.0,NNW,6.9,-,N/A,,Clear,340,2013-01-21 17:56:00
12:56 PM,66.9,41.0,39,30.13,10.0,Calm,Calm,-,N/A,,Clear,0,2013-01-21 18:56:00
1:56 PM,64.0,46.0,52,30.12,10.0,SSE,6.9,-,N/A,,Clear,150,2013-01-21 19:56:00
2:56 PM,64.9,43.0,45,30.12,10.0,Variable,4.6,-,N/A,,Clear,0,2013-01-21 20:56:00
3:56 PM,64.0,43.0,46,30.13,10.0,NNW,4.6,-,N/A,,Clear,340,2013-01-21 21:56:00
4:56 PM,61.0,41.0,48,30.14,10.0,North,5.8,-,N/A,,Clear,350,2013-01-21 22:56:00
5:56 PM,52.0,44.1,74,30.16,10.0,NW,3.5,-,N/A,,Clear,320,2013-01-21 23:56:00
6:56 PM,54.0,44.1,69,30.17,10.0,NNW,5.8,-,N/A,,Clear,330,2013-01-22 00:56:00
7:56 PM,55.0,43.0,64,30.19,10.0,North,8.1,-,N/A,,Clear,350,2013-01-22 01:56:00
8:56 PM,53.1,42.1,66,30.20,10.0,NNW,4.6,-,N/A,,Clear,340,2013-01-22 02:56:00
9:56 PM,51.1,42.1,71,30.21,10.0,NNW,4.6,-,N/A,,Clear,340,2013-01-22 03:56:00
10:56 PM,50.0,42.1,74,30.20,10.0,NNW,5.8,-,N/A,,Clear,340,2013-01-22 04:56:00
11:56 PM,51.1,39.0,63,30.20,10.0,North,6.9,-,N/A,,Clear,360,2013-01-22 05:56:00